Regional Weather Roundup
Issued by NWS Sioux Falls, SD

Home | Current Version | Previous Version | Text Only | Print | Product List | Glossary Off
Versions: 1 2 3 4 5 6 7 8 9 10 11 12 13 14 15 16 17 18 19 20 21 22 23 24 25 26 27 28 29 30 31 32 33 34 35 36 37 38 39 40 41 42 43 44 45 46 47 48 49 50

000
ASUS43 KFSD 221410
RWRFSD

WEATHER ROUNDUP FOR SE SOUTH DAKOTA/SW MINNESOTA/NW IOWA
NATIONAL WEATHER SERVICE SIOUX FALLS SD
900 AM CDT TUE APR 22 2014

NOTE: "FAIR" INDICATES FEW OR NO CLOUDS BELOW 12,000 FEET WITH NO
SIGNIFICANT WEATHER AND OR OBSTRUCTIONS TO VISIBILITY.


SDZ038>040-050-052>070-221500-
SOUTHEAST SOUTH DAKOTA

CITY           SKY/WX    TMP DP  RH WIND       PRES   REMARKS
CHAMBERLAIN      N/A     49  36  61 SE8       30.09S
HURON          SUNNY     46  32  58 S10       30.13S
MADISON        FAIR      46  32  57 S8        30.14F
MITCHELL       SUNNY     47  34  60 SE8       30.14F
SIOUX FALLS    MOSUNNY   45  33  63 CALM      30.16S
WINNER         PTSUNNY   57  31  37 S15       30.05F
YANKTON        SUNNY     45  34  65 E7        30.16F
$$

MNZ071-072-080-081-089-090-097-098-221500-
SOUTHWEST MINNESOTA

CITY           SKY/WX    TMP DP  RH WIND       PRES   REMARKS
FAIRMONT       SUNNY     46  30  53 N12       30.18R
JACKSON        SUNNY     46  32  57 VRB3      30.16S
LUVERNE        SUNNY     43  32  65 CALM      30.16F
MARSHALL       SUNNY     48  34  57 CALM      30.15S
MONTEVIDEO     SUNNY     52  39  62 CALM      30.16F
PIPESTONE      SUNNY     48  30  49 S3        30.14S
REDWOOD FALLS  SUNNY     46  34  62 NW5       30.16S
TRACY          SUNNY     50  33  53 CALM      30.16S
WINDOM         SUNNY     48  34  57 N7        30.15F
WORTHINGTON    SUNNY     48  28  46 E3        30.17F
$$

IAZ001>003-012>014-020>022-031-032-NEZ013-014-SDZ071-221500-
NORTHWEST IOWA

CITY           SKY/WX    TMP DP  RH WIND       PRES   REMARKS
CHEROKEE       SUNNY     44  34  69 CALM      30.17S
DENISON        SUNNY     48  34  57 E8        30.15F
ESTHERVILLE    SUNNY     47  34  60 N9        30.15S
LE MARS        SUNNY     43  34  70 CALM      30.18R HAZE
ORANGE CITY    SUNNY     48  30  49 E3        30.17R
SHELDON        SUNNY     46  32  57 E5        30.16R
SIOUX CITY     SUNNY     49  32  52 SE3       30.17S
SPENCER        SUNNY     49  33  54 NE7       30.16S
STORM LAKE     SUNNY     48  32  53 NE7       30.17S
$$

ABBREVIATIONS USED IN REMARKS
   TC - TEMPERATURE IN CELSIUS
  WCI - WIND CHILL INDEX
   HX - HEAT INDEX
  VSB - VISIBILITY




USA.gov is the U.S. government's official web portal to all federal, state and local government web resources and services.